This demonstration page uses our WeatherBlox Daily Observations layout. Learn more.

36.17497, -115.13722

Hourly Observations for June 17, 2020

Temp ( °F °C ) Dew Point ( °F °C ) Humidity (%) Winds ( mph kmh ) Pressure ( in mb ) Visibility ( mi km ) Precip ( " mm )
12:53 am 00:53 Clear 83 28.3 37 2.8 19 19 S 15 24 29.67 1005 10 16.0934 0 0
1:53 am 01:53 Clear 80 26.7 37 2.8 21 21 SSE 6 9 29.68 1005 10 16.0934 0 0
2:53 am 02:53 Clear 77 25 36 2.2 23 23 ENE 5 7 29.7 1006 10 16.0934 0 0
3:53 am 03:53 Clear 77 25 37 2.8 24 24 Calm 29.72 1007 10 16.0934 0 0
4:53 am 04:53 Clear 79 26.1 33 0.6 19 19 WNW 10 17 29.74 1007 10 16.0934 0 0
5:53 am 05:53 Sunny 77 25 30 -1.1 18 18 NNW 8 13 29.78 1008 10 16.0934 0 0
6:53 am 06:53 Sunny 79 26.1 28 -2.2 15 15 NNE 8 13 29.82 1010 10 16.0934 0 0
7:53 am 07:53 Sunny 81 27.2 28 -2.2 14 14 NNW 23 37 29.83 1010 10 16.0934 0 0
8:53 am 08:53 Sunny 83 28.3 29 -1.7 14 14 NW 23 37 29.85 1011 10 16.0934 0 0
9:53 am 09:53 Sunny 85 29.4 29 -1.7 13 13 NNW 17 28 29.86 1011 10 16.0934 0 0
10:53 am 10:53 Sunny 87 30.6 28 -2.2 12 12 NW 14 22 29.87 1011 10 16.0934 0 0
11:53 am 11:53 Sunny 88 31.1 28 -2.2 11 11 N 10 17 29.86 1011 10 16.0934 0 0
12:53 pm 12:53 Sunny 89 31.7 27 -2.8 11 11 Calm 29.85 1011 10 16.0934 0 0
1:53 pm 13:53 Sunny 94 34.4 28 -2.2 9 9 NNW 10 17 29.84 1010 10 16.0934 0 0
2:53 pm 14:53 Sunny 92 33.3 28 -2.2 10 10 VRB 6 9 29.82 1010 10 16.0934 0 0
3:53 pm 15:53 Sunny 94 34.4 28 -2.2 9 9 NNE 9 15 29.81 1009 10 16.0934 0 0
4:53 pm 16:53 Sunny 94 34.4 28 -2.2 9 9 VRB 6 9 29.79 1009 10 16.0934 0 0
5:53 pm 17:53 Sunny 94 34.4 28 -2.2 9 9 NE 3 6 29.79 1009 10 16.0934 0 0
6:53 pm 18:53 Sunny 93 33.9 28 -2.2 10 10 Calm 29.78 1009 10 16.0934 0 0
7:53 pm 19:53 Sunny 90 32.2 28 -2.2 11 11 E 6 9 29.79 1009 10 16.0934 0 0
8:53 pm 20:53 Clear 90 32.2 28 -2.2 11 11 NE 7 11 29.8 1009 10 16.0934 0 0
9:53 pm 21:53 Clear 86 30 17 -8.3 8 8 NE 8 13 29.82 1010 10 16.0934 0 0
10:53 pm 22:53 Clear 86 30 14 -10 7 7 NW 14 22 29.83 1010 10 16.0934 0 0
11:53 pm 23:53 Clear 86 30 11 -11.7 6 6 NW 15 24 29.83 1010 10 16.0934 0 0

Powered by AerisWeather